Current Weather Conditions: station 66022

sailwx.info

Wind from 240 at 7 knots

Air temperature 2.8° C
Dewpoint 2.5° C
Water temperature 5.2° C

Last reported at 2016-Dec-04 08:00 UTC.
Time now 2016-Dec-04 10:13 UTC

Location: N 54°06' E 014°12'.
View on Google Maps.

See reports from other nearby stations

  
Tides and Currents Weather Stations Pressure Air Temp Water Temp Dewpoint Dewpoint Depression Visibility Wind Speed Wind Dir Waves Ship Positions
date/time (UTC)wind fromknots sea level pressurealtimeterstation pressurevisibilityair tempwater tempwave heightnotes
2016-Dec-04 08:00 240 7 2.8 5.2
2016-Dec-04 07:00 240 9 2.5 5.2
2016-Dec-04 06:00 240 9 2.5 5.2
2016-Dec-04 05:00 250 9 2.9 5.2
2016-Dec-04 04:00 270 9 3.0 5.2
2016-Dec-04 03:00 260 7 2.5 5.2
2016-Dec-04 02:00 250 9 2.4 5.2
2016-Dec-04 01:00 250 7 2.8 5.2
2016-Dec-04 00:00 250 11 2.5 5.2
2016-Dec-03 23:00 240 13 1.9 5.2
2016-Dec-03 22:00 240 13 1.8 5.2
2016-Dec-03 21:00 240 13 1.9 5.2
2016-Dec-03 20:00 250 11 2.8 5.2
2016-Dec-03 19:00 250 11 2.9 5.3
2016-Dec-03 18:00 250 11 2.9 5.3
2016-Dec-03 17:00 260 11 3.1 5.3
2016-Dec-03 16:00 250 11 3.1 5.3
2016-Dec-03 15:00 250 11 3.5 5.3
2016-Dec-03 14:00 260 9 4.0 5.3
2016-Dec-03 13:00 270 11 4.1 5.3
2016-Dec-03 12:00 280 13 3.8 5.3
2016-Dec-03 11:00 270 11 3.6 5.3
2016-Dec-03 10:00 270 11 3.2 5.3
2016-Dec-03 09:00 270 11 3.1 5.3
2016-Dec-03 08:00 290 11 3.5 5.3
2016-Dec-03 07:00 310 11 4.2 5.3
2016-Dec-03 06:00 330 11 4.5 5.3
2016-Dec-03 05:00 320 9 4.5 5.3
2016-Dec-03 04:00 320 13 4.7 5.4
2016-Dec-03 03:00 320 13 4.8 5.4
2016-Dec-03 02:00 260 15 4.8 5.4
2016-Dec-03 01:00 300 15 4.8 5.4
2016-Dec-03 00:00 330 17 4.7 5.4
2016-Dec-02 23:00 330 19 4.8 5.4
2016-Dec-02 22:00 330 19 5.1 5.4
2016-Dec-02 21:00 330 19 5.4 5.4
2016-Dec-02 20:00 330 19 5.4 5.4
2016-Dec-02 19:00 320 19 5.6 5.4
2016-Dec-02 18:00 300 19 5.4 5.4
2016-Dec-02 17:00 300 19 5.6 5.5
2016-Dec-02 16:00 310 19 5.7 5.5
2016-Dec-02 15:00 300 15 5.7 5.5
2016-Dec-02 14:00 300 19 5.7 5.5
2016-Dec-02 13:00 310 21 5.8 5.5
2016-Dec-02 12:00 320 21 5.5 5.5
2016-Dec-02 11:00 320 21 5.3 5.5
2016-Dec-02 10:00 320 21 5.5 5.5